Weather History for KPHP - April, 2013

Change the Weather History Date:

Friday, April 12, 2013

  Actual Average Record
Temperature  
Mean Temperature 34 °F 45 °F  
Max Temperature 39 °F 59 °F 89 °F (2003)
Min Temperature 28 °F 31 °F 7 °F (1957)
Degree Days  
Heating Degree Days 31 20  
Month to date heating degree days 333 264  
Since 1 July heating degree days 6314 6567  
Cooling Degree Days 0 0  
Month to date cooling degree days 0 0  
Year to date cooling degree days 0 0  
Moisture  
Dew Point 29 °F    
Average Humidity 86    
Maximum Humidity 96    
Minimum Humidity 75    
Precipitation  
Precipitation T in 0.05 in 0.92 in (1970)
Month to date precipitation 0.96 0.48  
Year to date precipitation 2.18 2.53  
Sea Level Pressure  
Sea Level Pressure 29.95 in    
Wind  
Wind Speed 6 mph (WNW)    
Max Wind Speed 15 mph    
Max Gust Speed 18 mph    
Visibility 10 miles    
Events Rain    
T = Trace of Precipitation, MM = Missing Value Source: NWS Daily Summary

Daily Weather History Graph

Daily Weather History Graph

Search for Another Location

Airport or City:

Trip Planner

Search our weather history database for the weather conditions in past years. The results will help you decide how hot, cold, wet, or windy it might be!

Date:

Astronomy

Apr. 12, 2013 Rise Set
Actual Time 6:07 AM MDT 7:27 PM MDT
Civil Twilight 5:37 AM MDT 7:57 PM MDT
Nautical Twilight 5:01 AM MDT 8:33 PM MDT
Astronomical Twilight 4:23 AM MDT 9:11 PM MDT
Moon 7:14 AM MDT (4/12) 10:05 PM MDT (4/12)
Length of Visible Light 14h 19m
Length of Day
13h 19m
Waxing Crescent, 5% of the Moon is Illuminated
Apr 12
Waxing Crescent
Apr 18
First Quarter
Apr 25
Full
May 2
Last Quarter
May 9
New

Hourly Weather History & Observations

Time (MDT) Temp. Windchill Dew Point Humidity Pressure Visibility Wind Dir Wind Speed Gust Speed Precip Events Conditions
12:55 AM 30.0 °F 25.2 °F 27.0 °F 88% 29.92 in 10.0 mi WNW 4.6 mph - N/A   Overcast
1:55 AM 30.0 °F 21.7 °F 26.1 °F 85% 29.91 in 10.0 mi WNW 9.2 mph - N/A   Overcast
2:55 AM 30.0 °F 22.4 °F 26.1 °F 85% 29.91 in 10.0 mi NW 8.1 mph - N/A   Overcast
3:55 AM 30.0 °F 25.2 °F 26.1 °F 85% 29.90 in 10.0 mi WNW 4.6 mph - N/A   Overcast
4:55 AM 30.9 °F 21.7 °F 26.1 °F 82% 29.90 in 10.0 mi WNW 11.5 mph - N/A   Overcast
5:55 AM 30.9 °F 27.5 °F 26.1 °F 82% 29.91 in 10.0 mi North 3.5 mph - N/A   Overcast
6:55 AM 30.0 °F - 26.1 °F 85% 29.94 in 10.0 mi Calm Calm - N/A   Overcast
7:55 AM 30.0 °F 24.1 °F 27.0 °F 88% 29.95 in 10.0 mi East 5.8 mph - N/A   Overcast
8:44 AM 28.4 °F 21.2 °F 26.6 °F 93% 29.91 in 10.0 mi East 6.9 mph - N/A   Overcast
8:55 AM 28.0 °F 19.3 °F 25.0 °F 88% 29.97 in 10.0 mi East 9.2 mph - N/A   Overcast
9:22 AM 28.4 °F 21.2 °F 26.6 °F 93% 29.91 in 10.0 mi East 6.9 mph - N/A   Overcast
9:55 AM 30.0 °F 25.2 °F 26.1 °F 85% 29.98 in 10.0 mi East 4.6 mph - N/A   Overcast
10:55 AM 30.9 °F 27.5 °F 27.0 °F 85% 29.98 in 10.0 mi SE 3.5 mph - N/A   Overcast
11:06 AM 32.0 °F - 26.6 °F 80% 29.93 in 10.0 mi Calm Calm - N/A   Overcast
11:55 AM 30.9 °F - 28.0 °F 89% 29.99 in 10.0 mi Calm Calm - N/A   Overcast
12:25 PM 32.0 °F 25.6 °F 28.4 °F 87% 29.93 in 10.0 mi SW 6.9 mph - N/A   Mostly Cloudy
12:55 PM 33.1 °F 28.7 °F 28.0 °F 82% 29.98 in 10.0 mi SW 4.6 mph - N/A   Partly Cloudy
1:16 PM 35.6 °F 30.7 °F 28.4 °F 75% 29.93 in 10.0 mi West 5.8 mph - N/A   Mostly Cloudy
1:36 PM 35.6 °F 30.7 °F 28.4 °F 75% 29.93 in 10.0 mi SW 5.8 mph - N/A   Scattered Clouds
1:55 PM 36.0 °F 30.3 °F 28.9 °F 76% 29.98 in 10.0 mi WSW 6.9 mph - N/A   Mostly Cloudy
2:55 PM 37.9 °F 32.1 °F 30.0 °F 73% 29.97 in 10.0 mi West 8.1 mph - N/A   Scattered Clouds
3:55 PM 37.9 °F 31.5 °F 32.0 °F 79% 29.96 in 10.0 mi West 9.2 mph - N/A   Overcast
4:55 PM 37.0 °F 29.8 °F 33.1 °F 86% 29.97 in 10.0 mi West 10.4 mph - 0.00 in Rain Light Rain
5:55 PM 37.0 °F 28.9 °F 33.1 °F 86% 29.96 in 10.0 mi NW 12.7 mph - 0.00 in   Mostly Cloudy
6:21 PM 35.6 °F 27.5 °F 33.8 °F 93% 29.93 in 10.0 mi NNW 11.5 mph - N/A   Overcast
6:32 PM 35.6 °F 29.9 °F 33.8 °F 93% 29.93 in 10.0 mi North 6.9 mph - N/A   Overcast
6:55 PM 35.1 °F 30.1 °F 33.1 °F 92% 29.99 in 10.0 mi NNW 5.8 mph - N/A   Overcast
7:55 PM 35.1 °F 30.1 °F 33.1 °F 92% 30.00 in 10.0 mi WNW 5.8 mph - N/A   Overcast
8:16 PM 35.6 °F 28.6 °F 33.8 °F 93% 29.95 in 10.0 mi NW 9.2 mph - N/A   Overcast
8:55 PM 36.0 °F 29.0 °F 33.1 °F 89% 30.01 in 10.0 mi WNW 9.2 mph - N/A   Overcast
9:39 PM 33.8 °F 27.0 °F 32.0 °F 93% 29.96 in 10.0 mi WNW 8.1 mph - N/A   Scattered Clouds
9:55 PM 34.0 °F 27.2 °F 32.0 °F 92% 30.01 in 10.0 mi WNW 8.1 mph - N/A   Mostly Cloudy
10:55 PM 32.0 °F 28.7 °F 30.9 °F 96% 30.00 in 10.0 mi NW 3.5 mph - N/A   Mostly Cloudy
11:55 PM 32.0 °F 28.7 °F 30.9 °F 96% 29.99 in 10.0 mi WSW 3.5 mph - N/A   Mostly Cloudy